Time,TemperatureF,DewpointF,PressureIn,WindDirection,WindDirectionDegrees,WindSpeedMPH,WindSpeedGustMPH,Humidity,HourlyPrecipIn,Conditions,Clouds,dailyrainin,SoftwareType,DateUTC
2013-08-03 00:32:00,69.0,21.0,29.98,North,350,12.0,19.0,16,0.00,,,0.00,,2013-08-03 07:32:00,
2013-08-03 00:43:00,68.0,20.0,29.97,NNW,344,12.0,18.0,16,0.00,,,0.00,,2013-08-03 07:43:00,
2013-08-03 02:22:00,67.0,21.0,29.98,NNW,338,11.0,18.0,17,0.00,,,0.00,,2013-08-03 09:22:00,
2013-08-03 02:32:00,67.0,21.0,29.97,NNW,342,11.0,16.0,17,0.00,,,0.00,,2013-08-03 09:32:00,
2013-08-03 02:43:00,67.0,21.0,29.97,NNW,342,11.0,16.0,17,0.00,,,0.00,,2013-08-03 09:43:00,
2013-08-03 03:42:00,66.0,24.0,29.96,NNW,337,12.0,18.0,20,0.00,,,0.00,,2013-08-03 10:42:00,
2013-08-03 03:52:00,66.0,25.0,29.96,NNE,15,12.0,17.0,21,0.00,,,0.00,,2013-08-03 10:52:00,
2013-08-03 04:02:00,66.0,25.0,29.96,NNE,13,12.0,19.0,21,0.00,,,0.00,,2013-08-03 11:02:00,
2013-08-03 04:32:00,66.0,26.0,29.96,North,355,17.0,22.0,22,0.00,,,0.00,,2013-08-03 11:32:00,
2013-08-03 04:43:00,66.0,26.0,29.95,NNW,346,18.0,24.0,22,0.00,,,0.00,,2013-08-03 11:43:00,
2013-08-03 04:53:00,66.0,26.0,29.95,North,360,18.0,27.0,22,0.00,,,0.00,,2013-08-03 11:53:00,
2013-08-03 05:01:00,66.0,26.0,29.95,North,351,19.0,29.0,22,0.00,,,0.00,,2013-08-03 12:01:00,
2013-08-03 05:12:00,66.0,27.0,29.96,North,5,15.0,21.0,23,0.00,,,0.00,,2013-08-03 12:12:00,
2013-08-03 05:22:00,66.0,28.0,29.95,North,360,15.0,21.0,24,0.00,,,0.00,,2013-08-03 12:22:00,
2013-08-03 05:32:00,66.0,27.0,29.95,NNW,345,15.0,23.0,23,0.00,,,0.00,,2013-08-03 12:32:00,
2013-08-03 05:43:00,66.0,27.0,29.95,NNW,335,11.0,21.0,23,0.00,,,0.00,,2013-08-03 12:43:00,
2013-08-03 05:52:00,66.0,27.0,29.95,NNW,335,11.0,21.0,23,0.00,,,0.00,,2013-08-03 12:52:00,
2013-08-03 06:01:00,66.0,29.0,29.95,North,360,14.0,21.0,25,0.00,,,0.00,,2013-08-03 13:01:00,
2013-08-03 06:11:00,66.0,30.0,29.95,North,360,14.0,23.0,26,0.00,,,0.00,,2013-08-03 13:11:00,
2013-08-03 06:42:00,66.0,29.0,29.95,North,360,13.0,20.0,25,0.00,,,0.00,,2013-08-03 13:42:00,
2013-08-03 06:52:00,66.0,29.0,29.95,North,360,13.0,20.0,25,0.00,,,0.00,,2013-08-03 13:52:00,
2013-08-03 07:01:00,66.0,29.0,29.95,North,360,13.0,20.0,25,0.00,,,0.00,,2013-08-03 14:01:00,
2013-08-03 07:52:00,68.0,32.0,29.97,North,5,13.0,21.0,26,0.00,,,0.00,,2013-08-03 14:52:00,
2013-08-03 08:22:00,68.0,31.0,29.98,NNE,21,10.0,23.0,25,0.00,,,0.00,,2013-08-03 15:22:00,
2013-08-03 08:32:00,69.0,30.0,29.99,NNE,21,8.0,17.0,23,0.00,,,0.00,,2013-08-03 15:32:00,
2013-08-03 08:43:00,70.0,30.0,29.99,North,355,10.0,18.0,23,0.00,,,0.00,,2013-08-03 15:43:00,
2013-08-03 08:53:00,70.0,30.0,29.99,North,355,10.0,18.0,23,0.00,,,0.00,,2013-08-03 15:53:00,
2013-08-03 09:02:00,70.0,29.0,29.99,NNW,339,12.0,18.0,22,0.00,,,0.00,,2013-08-03 16:02:00,
2013-08-03 09:11:00,71.0,30.0,29.99,NNW,341,11.0,18.0,22,0.00,,,0.00,,2013-08-03 16:11:00,
2013-08-03 09:33:00,72.0,30.0,29.99,North,350,11.0,22.0,21,0.00,,,0.00,,2013-08-03 16:33:00,
2013-08-03 09:52:00,74.0,28.0,29.99,NW,326,7.0,16.0,18,0.00,,,0.00,,2013-08-03 16:52:00,
2013-08-03 10:02:00,74.0,28.0,30.00,NE,34,8.0,17.0,18,0.00,,,0.00,,2013-08-03 17:02:00,
2013-08-03 10:11:00,74.0,28.0,30.00,NE,34,8.0,17.0,18,0.00,,,0.00,,2013-08-03 17:11:00,
2013-08-03 10:21:00,74.0,28.0,30.00,NE,34,8.0,17.0,18,0.00,,,0.00,,2013-08-03 17:21:00,
2013-08-03 10:32:00,75.0,26.0,30.01,NNW,338,6.0,16.0,16,0.00,,,0.00,,2013-08-03 17:32:00,
2013-08-03 10:43:00,76.0,23.0,30.01,North,355,1.0,13.0,14,0.00,,,0.00,,2013-08-03 17:43:00,
2013-08-03 10:52:00,77.0,22.0,30.01,NNW,333,6.0,14.0,13,0.00,,,0.00,,2013-08-03 17:52:00,
2013-08-03 11:02:00,77.0,22.0,30.01,NNW,333,6.0,14.0,13,0.00,,,0.00,,2013-08-03 18:02:00,
2013-08-03 11:11:00,78.0,19.0,30.01,NNW,334,3.0,11.0,11,0.00,,,0.00,,2013-08-03 18:11:00,
2013-08-03 11:53:00,79.0,20.0,30.01,North,360,5.0,18.0,11,0.00,,,0.00,,2013-08-03 18:53:00,
2013-08-03 12:52:00,80.0,23.0,30.01,North,360,8.0,12.0,12,0.00,,,0.00,,2013-08-03 19:52:00,
2013-08-03 13:02:00,81.0,26.0,30.01,NNE,12,6.0,15.0,13,0.00,,,0.00,,2013-08-03 20:02:00,
2013-08-03 13:12:00,81.0,26.0,30.01,North,351,7.0,15.0,13,0.00,,,0.00,,2013-08-03 20:12:00,
2013-08-03 13:21:00,81.0,24.0,30.01,NNE,22,8.0,13.0,12,0.00,,,0.00,,2013-08-03 20:21:00,
2013-08-03 13:42:00,82.0,30.0,30.00,North,360,6.0,17.0,15,0.00,,,0.00,,2013-08-03 20:42:00,
2013-08-03 13:52:00,82.0,26.0,30.00,North,355,7.0,17.0,13,0.00,,,0.00,,2013-08-03 20:52:00,
2013-08-03 14:01:00,82.0,26.0,30.00,NNE,24,9.0,16.0,13,0.00,,,0.00,,2013-08-03 21:01:00,
2013-08-03 14:11:00,82.0,26.0,30.00,NNE,24,9.0,16.0,13,0.00,,,0.00,,2013-08-03 21:11:00,
2013-08-03 14:32:00,83.0,29.0,30.00,NNE,17,8.0,15.0,14,0.00,,,0.00,,2013-08-03 21:32:00,
2013-08-03 14:42:00,83.0,29.0,30.00,NNE,17,8.0,15.0,14,0.00,,,0.00,,2013-08-03 21:42:00,
2013-08-03 14:52:00,83.0,29.0,30.00,North,10,5.0,14.0,14,0.00,,,0.00,,2013-08-03 21:52:00,
2013-08-03 15:01:00,83.0,27.0,30.00,NNW,334,7.0,14.0,13,0.00,,,0.00,,2013-08-03 22:01:00,
2013-08-03 15:12:00,83.0,27.0,30.00,NNW,334,7.0,14.0,13,0.00,,,0.00,,2013-08-03 22:12:00,
2013-08-03 15:32:00,82.0,28.0,29.99,North,355,5.0,13.0,14,0.00,,,0.00,,2013-08-03 22:32:00,
2013-08-03 15:43:00,83.0,27.0,29.99,ENE,57,7.0,15.0,13,0.00,,,0.00,,2013-08-03 22:43:00,
2013-08-03 15:52:00,83.0,27.0,29.99,ENE,57,7.0,15.0,13,0.00,,,0.00,,2013-08-03 22:52:00,
2013-08-03 16:01:00,82.0,31.0,29.99,NNW,347,6.0,14.0,16,0.00,,,0.00,,2013-08-03 23:01:00,
2013-08-03 16:12:00,82.0,30.0,29.99,NNW,346,7.0,13.0,15,0.00,,,0.00,,2013-08-03 23:12:00,
2013-08-03 16:32:00,82.0,30.0,29.98,NW,309,5.0,14.0,15,0.00,,,0.00,,2013-08-03 23:32:00,
2013-08-03 16:52:00,81.0,31.0,29.98,NNW,343,4.0,17.0,16,0.00,,,0.00,,2013-08-03 23:52:00,
2013-08-03 17:02:00,81.0,29.0,29.98,North,355,9.0,14.0,15,0.00,,,0.00,,2013-08-04 00:02:00,
2013-08-03 17:11:00,81.0,26.0,29.98,North,355,5.0,14.0,13,0.00,,,0.00,,2013-08-04 00:11:00,
2013-08-03 17:32:00,81.0,29.0,29.98,North,9,7.0,11.0,15,0.00,,,0.00,,2013-08-04 00:32:00,
2013-08-03 17:42:00,81.0,29.0,29.98,North,9,7.0,11.0,15,0.00,,,0.00,,2013-08-04 00:42:00,
2013-08-03 17:52:00,81.0,29.0,29.98,North,9,7.0,11.0,15,0.00,,,0.00,,2013-08-04 00:52:00,
2013-08-03 18:02:00,80.0,27.0,29.98,North,350,7.0,13.0,14,0.00,,,0.00,,2013-08-04 01:02:00,
2013-08-03 18:11:00,80.0,27.0,29.98,NNW,348,6.0,13.0,14,0.00,,,0.00,,2013-08-04 01:11:00,
2013-08-03 18:22:00,80.0,27.0,29.98,NNW,348,6.0,13.0,14,0.00,,,0.00,,2013-08-04 01:22:00,
2013-08-03 18:32:00,79.0,26.0,29.98,North,360,6.0,11.0,14,0.00,,,0.00,,2013-08-04 01:32:00,
2013-08-03 18:42:00,77.0,26.0,29.98,NNW,327,7.0,13.0,15,0.00,,,0.00,,2013-08-04 01:42:00,
2013-08-03 18:52:00,76.0,23.0,29.98,NNW,342,8.0,12.0,14,0.00,,,0.00,,2013-08-04 01:52:00,
2013-08-03 19:02:00,76.0,23.0,29.98,NNW,342,8.0,12.0,14,0.00,,,0.00,,2013-08-04 02:02:00,
2013-08-03 19:21:00,76.0,25.0,29.98,North,355,9.0,12.0,15,0.00,,,0.00,,2013-08-04 02:21:00,
2013-08-03 19:32:00,76.0,25.0,29.98,North,355,9.0,12.0,15,0.00,,,0.00,,2013-08-04 02:32:00,
2013-08-03 19:42:00,73.0,24.0,29.98,NNW,340,7.0,13.0,16,0.00,,,0.00,,2013-08-04 02:42:00,
2013-08-03 19:52:00,73.0,24.0,29.98,NNW,340,7.0,13.0,16,0.00,,,0.00,,2013-08-04 02:52:00,
2013-08-03 20:01:00,73.0,27.0,29.98,North,360,8.0,14.0,18,0.00,,,0.00,,2013-08-04 03:01:00,
2013-08-03 20:11:00,73.0,27.0,29.98,North,360,8.0,14.0,18,0.00,,,0.00,,2013-08-04 03:11:00,
2013-08-03 20:21:00,73.0,28.0,29.98,NW,309,9.0,17.0,19,0.00,,,0.00,,2013-08-04 03:21:00,
2013-08-03 20:32:00,73.0,28.0,29.98,North,360,8.0,15.0,19,0.00,,,0.00,,2013-08-04 03:32:00,
2013-08-03 20:42:00,73.0,28.0,29.98,North,355,9.0,13.0,19,0.00,,,0.00,,2013-08-04 03:42:00,
2013-08-03 20:52:00,73.0,28.0,29.98,North,355,9.0,13.0,19,0.00,,,0.00,,2013-08-04 03:52:00,
2013-08-03 21:01:00,72.0,26.0,29.99,NNW,336,7.0,17.0,18,0.00,,,0.00,,2013-08-04 04:01:00,
2013-08-03 21:11:00,72.0,26.0,29.99,NNW,336,7.0,17.0,18,0.00,,,0.00,,2013-08-04 04:11:00,
2013-08-03 21:21:00,72.0,26.0,29.99,NNW,336,7.0,17.0,18,0.00,,,0.00,,2013-08-04 04:21:00,
2013-08-03 21:32:00,72.0,26.0,29.99,NNW,336,7.0,17.0,18,0.00,,,0.00,,2013-08-04 04:32:00,
2013-08-03 21:42:00,72.0,29.0,30.00,North,355,7.0,15.0,20,0.00,,,0.00,,2013-08-04 04:42:00,
2013-08-03 21:52:00,72.0,29.0,30.00,North,355,7.0,15.0,20,0.00,,,0.00,,2013-08-04 04:52:00,
2013-08-03 22:02:00,72.0,30.0,30.01,North,350,8.0,12.0,21,0.00,,,0.00,,2013-08-04 05:02:00,
2013-08-03 22:12:00,72.0,30.0,30.01,North,350,8.0,12.0,21,0.00,,,0.00,,2013-08-04 05:12:00,
2013-08-03 22:21:00,72.0,31.0,30.01,NNW,346,8.0,14.0,22,0.00,,,0.00,,2013-08-04 05:21:00,
2013-08-03 22:32:00,72.0,31.0,30.01,NNW,346,8.0,14.0,22,0.00,,,0.00,,2013-08-04 05:32:00,
2013-08-03 22:42:00,72.0,32.0,30.01,NNW,346,9.0,14.0,23,0.00,,,0.00,,2013-08-04 05:42:00,
2013-08-03 22:52:00,72.0,32.0,30.01,North,350,9.0,15.0,23,0.00,,,0.00,,2013-08-04 05:52:00,
2013-08-03 23:01:00,72.0,32.0,30.01,North,350,9.0,15.0,23,0.00,,,0.00,,2013-08-04 06:01:00,
2013-08-03 23:12:00,71.0,32.0,30.01,North,355,8.0,13.0,24,0.00,,,0.00,,2013-08-04 06:12:00,
2013-08-03 23:21:00,71.0,32.0,30.01,NW,309,8.0,12.0,24,0.00,,,0.00,,2013-08-04 06:21:00,
2013-08-03 23:32:00,71.0,34.0,30.01,North,360,9.0,15.0,26,0.00,,,0.00,,2013-08-04 06:32:00,
2013-08-03 23:42:00,71.0,34.0,30.01,NNE,17,9.0,15.0,26,0.00,,,0.00,,2013-08-04 06:42:00,
2013-08-03 23:51:00,71.0,33.0,30.01,North,350,10.0,14.0,25,0.00,,,0.00,,2013-08-04 06:51:00,